[[{"header":{"parameterUnit":"m.s-1","parameterCategory":1,"la1":30.2991,"la2":30.254,"lo1":-89.0895,"lo2":-89.0444,"dy":0.0017,"dx":0.0017,"nx":28,"ny":28,"refTime":"2024-08-30T03:00:00:Z","depth":0,"parameterNumber":2,"parameterNumberName":"U-component_of_WINDS"},"data":[0,0,0,0,0,0,0,0,0,0,0,0,0,0,0,0,0,0,0,0,0,0,0,0,0,0,0,0,0,0,0,0,0,0,0,0,0,0,0,0,0,0,0,0,0,0,0,0,0,0,0,0,0,0,0,0,0,0,-3.2414,-3.2415,0,-3.257,-3.2572,-3.2574,-3.2585,-3.2584,-3.2582,-3.258,-3.2737,-3.2742,-3.2748,0,0,0,0,0,0,0,0,0,0,0,0,0,-3.212,-3.2126,-3.2413,-3.2415,-3.2417,-3.257,-3.2572,-3.2574,-3.2586,-3.2584,-3.2582,-3.258,-3.2735,-3.2741,-3.2748,0,0,0,0,0,0,0,0,0,0,0,0,0,-3.2259,-3.2127,-3.2413,-3.2441,-3.2446,-3.257,-3.2572,-3.2575,-3.2586,-3.2584,-3.2581,-3.2579,-3.2732,-3.2741,-3.2749,-3.2854,0,0,-3.2776,-3.2779,0,0,0,0,0,0,0,0,-3.2251,-3.227,-3.2435,-3.244,-3.2445,-3.2556,-3.2526,-3.2668,-3.2587,-3.2533,-3.258,-3.2577,-3.2678,-3.2691,-3.2726,-3.2862,-3.2868,-3.2776,-3.2782,-3.2785,-3.2788,0,0,0,0,0,0,0,-3.2242,-3.2263,-3.2475,-3.2438,-3.2443,-3.2445,-3.2462,-3.2553,-3.2618,-3.2537,-3.2538,-3.2557,-3.268,-3.2718,-3.273,-3.2871,-3.2776,-3.2784,-3.2789,-3.2793,-3.3101,-3.3104,0,0,0,0,0,0,-3.2227,-3.2255,-3.247,-3.248,-3.234,-3.2453,-3.2472,-3.2523,-3.2617,-3.2629,-3.2559,-3.2557,-3.2704,-3.272,-3.2735,-3.2864,-3.2785,-3.2793,-3.2798,-3.3098,-3.3101,-3.3105,0,0,0,0,0,0,-3.2221,-3.2246,-3.2464,-3.2368,-3.2396,-3.2461,-3.2518,-3.2527,-3.2565,-3.2634,-3.2645,-3.2586,-3.2703,-3.2723,-3.2825,-3.287,-3.2797,-3.2805,-3.3094,-3.3099,-3.3103,-3.3122,0,0,0,0,0,0,-3.2212,-3.2244,-3.2285,-3.2369,-3.2401,-3.2552,-3.2521,-3.2532,-3.258,-3.2579,-3.2662,-3.2673,-3.2702,-3.2812,-3.2834,-3.288,-3.2812,-3.309,-3.3096,-3.3102,-3.3118,-3.3127,-3.3135,0,0,0,0,0,-3.2202,-3.2283,-3.2287,-3.2313,-3.2454,-3.2554,-3.2573,-3.2606,-3.2584,-3.2625,-3.267,-3.267,-3.2862,-3.2822,-3.2847,-3.2897,-3.3088,-3.3095,-3.3101,-3.3114,-3.3125,-3.3134,0,0,0,0,0,0,-3.22,-3.2294,-3.23,-3.2411,-3.2475,-3.2556,-3.2609,-3.2617,-3.2687,-3.2683,-3.2721,-3.2739,-3.284,-3.2879,-3.2833,-3.3004,-3.2972,-3.2984,-3.2974,-3.2985,-3.2993,-3.298,-3.2819,0,0,0,0,0,-3.2213,-3.2288,-3.2366,-3.2456,-3.2489,-3.2544,-3.2589,-3.261,-3.2677,-3.2703,-3.2755,-3.2819,-3.2894,-3.2942,-3.3015,-3.3125,-3.3142,-3.3171,-3.318,-3.3186,-3.3195,-3.3256,-3.3269,-3.3127,-3.3127,-3.3127,0,0,-3.224,-3.2301,-3.2345,-3.2458,-3.251,-3.2585,-3.2566,-3.2647,-3.2703,-3.2715,-3.2814,-3.2855,-3.2929,-3.3036,-3.3085,-3.3071,-3.3239,-3.3195,-3.3199,-3.3205,-3.3264,-3.3278,-3.329,-3.3131,-3.3131,-3.313,0,0,-3.2326,-3.2381,-3.2462,-3.2515,-3.2595,-3.2632,-3.2651,-3.2733,-3.276,-3.2862,-3.2872,-3.294,-3.3068,-3.312,-3.3163,-3.3273,-3.3276,-3.3296,-3.3338,-3.3397,-3.3409,-3.3419,-3.3456,-3.347,-3.3305,-3.3306,-3.3306,0,-3.2348,-3.2464,-3.2502,-3.2583,-3.2632,-3.265,-3.2731,-3.2781,-3.288,-3.2913,-3.2897,-3.3059,-3.311,-3.3229,-3.3256,-3.3291,-3.3313,-3.3285,-3.3404,-3.3415,-3.3425,-3.3461,-3.3475,-3.3307,-3.3307,-3.3307,-3.3307,0,-3.2487,-3.2567,-3.2623,-3.272,-3.2776,-3.2857,-3.2906,-3.2958,-3.2975,-3.3013,-3.3116,-3.3179,-3.3264,-3.3295,-3.3311,-3.3416,-3.3405,-3.3397,-3.3365,-3.3439,-3.3474,-3.3488,-3.331,-3.3309,-3.3309,-3.3308,0,0,-3.2573,-3.2693,-3.2712,-3.2757,-3.2848,-3.291,-3.2992,-3.3078,-3.3121,-3.3189,-3.3258,-3.3368,-3.3361,-3.341,-3.3433,-3.3486,-3.3567,-3.3471,-3.3473,-3.3485,-3.3686,-3.369,-3.3706,-3.3571,-3.3574,-3.3577,-3.3679,0,-3.2668,-3.2816,-3.2853,-3.2979,-3.3053,-3.3072,-3.3144,-3.3207,-3.3245,-3.3313,-3.3355,-3.3432,-3.3418,-3.3448,-3.3501,-3.3546,-3.3608,-3.354,-3.3634,-3.3637,-3.3612,-3.3724,-3.3728,-3.3822,-3.3693,-3.3695,-3.3697,0,-3.2798,-3.2871,-3.3004,-3.3086,-3.3119,-3.3182,-3.3265,-3.333,-3.3402,-3.3427,-3.3483,-3.3502,-3.3588,-3.3555,-3.3673,-3.3626,-3.3667,-3.3696,-3.3701,-3.3708,-3.3669,-3.3732,-3.3853,-3.3866,-3.3719,-3.3717,-3.3716,0,-3.2845,-3.2977,-3.3074,-3.3111,-3.321,-3.3255,-3.3298,-3.3368,-3.3417,-3.3489,-3.3522,-3.3602,-3.3646,-3.3707,-3.3747,-3.372,-3.3862,-3.3832,-3.3883,-3.3882,-3.3909,-3.3906,-3.4035,-3.394,-3.394,-3.394,-3.394,0,-3.2945,-3.3025,-3.3096,-3.3155,-3.3246,-3.3289,-3.3377,-3.3421,-3.3483,-3.3551,-3.3573,-3.3635,-3.3686,-3.3755,-3.3787,-3.3879,-3.3899,-3.392,-3.3927,-3.3917,-3.3914,-3.3942,-3.3936,-3.3944,-3.3943,-3.3942,-3.3941,0,-3.3011,-3.3063,-3.3169,-3.3255,-3.3279,-3.3342,-3.3415,-3.3473,-3.3514,-3.3599,-3.3621,-3.3684,-3.3767,-3.3815,-3.3918,-3.394,-3.4042,-3.4047,-3.4018,-3.402,-3.4068,-3.4062,-3.4217,-3.4239,-3.4131,-3.4132,-3.4133,0,-3.3071,-3.3133,-3.3227,-3.3275,-3.3319,-3.3395,-3.3447,-3.3493,-3.3545,-3.3633,-3.368,-3.3765,-3.3835,-3.3967,-3.4021,-3.4101,-3.4107,-3.4156,-3.4118,-3.4106,-3.4105,-3.41,-3.4106,-3.4161,-3.4162,-3.4163,-3.4163,0,-3.317,-3.3193,-3.3267,-3.335,-3.3412,-3.3479,-3.3546,-3.3584,-3.3641,-3.3698,-3.3785,-3.3839,-3.3947,-3.403,-3.4115,-3.4159,-3.417,-3.4176,-3.4191,-3.4179,-3.4159,-3.4169,-3.4033,-3.4171,-3.417,-3.4169,-3.4169,-3.4169,-3.3233,-3.329,-3.3365,-3.3447,-3.3503,-3.3566,-3.3624,-3.3674,-3.3747,-3.3838,-3.3862,-3.3952,-3.4024,-3.4139,-3.4186,-3.4256,-3.4247,-3.427,-3.4275,-3.428,-3.428,-3.4151,-3.4272,-3.4272,-3.4272,-3.4272,-3.4272,0,-3.3332,-3.3382,-3.3458,-3.3552,-3.3616,-3.3625,-3.37,-3.3753,-3.3832,-3.3899,-3.3969,-3.4068,-3.415,-3.4212,-3.4296,-3.434,-3.4348,-3.4361,-3.4356,-3.4366,-3.4284,-3.4262,-3.4353,-3.4353,-3.4353,-3.4353,-3.4353,-3.4353,-3.3391,-3.3487,-3.3519,-3.3643,-3.3692,-3.3782,-3.3824,-3.3882,-3.3936,-3.4046,-3.4115,-3.4156,-3.4221,-3.431,-3.4385,-3.4402,-3.443,-3.4442,-3.4459,-3.438,-3.4372,-3.4363,-3.4342,-3.4448,-3.4449,-3.4534,-3.4535,-3.4535]},{"header":{"parameterUnit":"m.s-1","parameterCategory":1,"la1":30.2991,"la2":30.254,"lo1":-89.0895,"lo2":-89.0444,"dy":0.0017,"dx":0.0017,"nx":28,"ny":28,"refTime":"2024-08-30T03:00:00:Z","depth":0,"parameterNumber":3,"parameterNumberName":"V-component_of_WINDS"},"data":[0,0,0,0,0,0,0,0,0,0,0,0,0,0,0,0,0,0,0,0,0,0,0,0,0,0,0,0,0,0,0,0,0,0,0,0,0,0,0,0,0,0,0,0,0,0,0,0,0,0,0,0,0,0,0,0,0,0,2.1306,2.1306,0,2.1358,2.1358,2.1359,2.1299,2.1297,2.1295,2.1293,2.1342,2.1345,2.1349,0,0,0,0,0,0,0,0,0,0,0,0,0,2.1152,2.1155,2.1306,2.1306,2.1307,2.1358,2.1358,2.1359,2.13,2.1297,2.1294,2.1292,2.1341,2.1345,2.1349,0,0,0,0,0,0,0,0,0,0,0,0,0,2.1213,2.1156,2.1306,2.1284,2.1282,2.1357,2.1358,2.1359,2.13,2.1297,2.1293,2.129,2.134,2.1344,2.1349,2.1448,0,0,2.1365,2.1367,0,0,0,0,0,0,0,0,2.121,2.1219,2.1286,2.1285,2.1284,2.1319,2.1322,2.1389,2.1301,2.1293,2.1293,2.1289,2.1337,2.1342,2.1359,2.145,2.1452,2.1365,2.1369,2.1371,2.1372,0,0,0,0,0,0,0,2.1206,2.1216,2.1326,2.1287,2.1286,2.127,2.1275,2.1335,2.1333,2.1294,2.1289,2.1297,2.1335,2.1354,2.1359,2.1453,2.1365,2.137,2.1373,2.1375,2.1628,2.1631,0,0,0,0,0,0,2.1204,2.1213,2.1324,2.1328,2.1238,2.1276,2.1281,2.1311,2.1332,2.1332,2.1299,2.1294,2.1347,2.1354,2.1361,2.1477,2.1371,2.1375,2.1378,2.1624,2.1629,2.1633,0,0,0,0,0,0,2.1201,2.1215,2.1322,2.1269,2.1282,2.1282,2.1315,2.1313,2.1332,2.1337,2.1336,2.1319,2.1345,2.1354,2.1427,2.1478,2.1378,2.1382,2.162,2.1626,2.1631,2.1711,0,0,0,0,0,0,2.1197,2.1214,2.1252,2.1271,2.1285,2.1388,2.1319,2.1317,2.1341,2.1334,2.1355,2.1355,2.1343,2.142,2.1432,2.1483,2.1386,2.1615,2.1622,2.1629,2.1703,2.1718,2.1731,0,0,0,0,0,2.1192,2.1271,2.1254,2.1268,2.1332,2.1392,2.1399,2.1385,2.1346,2.1383,2.1387,2.1354,2.1471,2.1428,2.1441,2.1495,2.1612,2.162,2.1628,2.1697,2.1715,2.1731,0,0,0,0,0,0,2.1257,2.1273,2.1254,2.1343,2.1366,2.1381,2.1428,2.1405,2.1439,2.1431,2.141,2.1415,2.1493,2.1501,2.1453,2.1591,2.1535,2.1546,2.1583,2.16,2.1613,2.1609,2.1391,0,0,0,0,0,2.1282,2.133,2.1341,2.1418,2.1431,2.1428,2.1453,2.144,2.1463,2.1473,2.1481,2.1504,2.1546,2.1573,2.1612,2.1705,2.1708,2.1749,2.1762,2.1774,2.1783,2.1833,2.1851,2.166,2.166,2.166,0,0,2.1333,2.1348,2.1379,2.1431,2.1448,2.1497,2.1436,2.1491,2.1526,2.148,2.155,2.1558,2.1582,2.1665,2.1702,2.1674,2.1837,2.1784,2.1793,2.1796,2.1843,2.1861,2.1877,2.1665,2.1664,2.1663,0,0,2.1451,2.1468,2.1534,2.1552,2.1579,2.1577,2.1593,2.1613,2.1616,2.1686,2.1653,2.1695,2.1768,2.1786,2.1805,2.1933,2.1904,2.1947,2.2017,2.2066,2.2081,2.2094,2.2139,2.2156,2.1956,2.1957,2.1957,0,2.1511,2.1584,2.157,2.1627,2.1651,2.1614,2.168,2.1698,2.1736,2.1753,2.1722,2.1813,2.1826,2.1914,2.1945,2.1962,2.1979,2.1943,2.208,2.2094,2.2106,2.2148,2.2165,2.1961,2.1961,2.196,2.196,0,2.1656,2.1708,2.1757,2.1797,2.1826,2.1888,2.1882,2.1914,2.1899,2.19,2.1972,2.1988,2.2029,2.2049,2.2035,2.2135,2.2117,2.2084,2.2026,2.2129,2.2168,2.2185,2.1968,2.1967,2.1965,2.1964,0,0,2.1814,2.1846,2.1865,2.1882,2.1911,2.195,2.201,2.2052,2.2079,2.2107,2.2156,2.222,2.2189,2.2211,2.2199,2.2242,2.2341,2.2203,2.2203,2.2227,2.2452,2.2476,2.2495,2.2324,2.2327,2.2329,2.245,0,2.1931,2.2036,2.2026,2.2125,2.2172,2.2139,2.2191,2.2214,2.2217,2.2257,2.226,2.2305,2.2262,2.2275,2.2317,2.2321,2.2386,2.2312,2.2368,2.237,2.2361,2.2516,2.2541,2.2654,2.2465,2.2468,2.247,0,2.2082,2.2117,2.2222,2.2244,2.2263,2.231,2.2349,2.2388,2.2413,2.2412,2.2438,2.2419,2.2478,2.2422,2.2503,2.2453,2.2476,2.2481,2.2485,2.2488,2.2425,2.2522,2.269,2.2707,2.2494,2.2492,2.2491,0,2.2186,2.2259,2.2331,2.2348,2.2375,2.2409,2.2422,2.2444,2.2471,2.2504,2.2521,2.2561,2.2582,2.2613,2.2604,2.2564,2.2688,2.263,2.2688,2.2688,2.2713,2.2711,2.2886,2.2731,2.2731,2.273,2.273,0,2.2317,2.2382,2.2378,2.2422,2.2494,2.2482,2.2553,2.2562,2.2582,2.2627,2.26,2.2643,2.263,2.2672,2.2666,2.2734,2.2744,2.2744,2.2741,2.2746,2.2746,2.2759,2.275,2.2735,2.2734,2.2733,2.2732,0,2.2443,2.2444,2.252,2.2541,2.2548,2.26,2.2617,2.2659,2.2661,2.2718,2.273,2.2733,2.2781,2.2777,2.283,2.2826,2.291,2.2899,2.2902,2.2899,2.2956,2.295,2.3144,2.3168,2.2999,2.3,2.3002,0,2.2526,2.2576,2.2603,2.2632,2.2648,2.2694,2.2722,2.2712,2.2742,2.2775,2.2813,2.2859,2.2894,2.2972,2.2979,2.3019,2.3008,2.3073,2.3014,2.3017,2.3008,2.3004,2.3009,2.3084,2.3086,2.3087,2.3089,0,2.2674,2.2672,2.2713,2.2755,2.2789,2.2821,2.285,2.2875,2.2869,2.2903,2.2953,2.2981,2.3037,2.3082,2.3121,2.3133,2.311,2.3108,2.3123,2.3127,2.3126,2.3127,2.2932,2.3103,2.3101,2.31,2.31,2.3099,2.278,2.2822,2.2849,2.2896,2.2917,2.2946,2.2986,2.2994,2.3036,2.3081,2.3073,2.3129,2.3153,2.3204,2.322,2.3263,2.3239,2.3261,2.3267,2.3272,2.3278,2.3122,2.327,2.327,2.3269,2.3269,2.3269,0,2.2924,2.294,2.2984,2.3027,2.3064,2.3041,2.3073,2.3105,2.3155,2.318,2.3217,2.3274,2.3319,2.333,2.3373,2.3405,2.3395,2.3416,2.3413,2.3416,2.3298,2.328,2.3423,2.3423,2.3423,2.3423,2.3423,2.3423,2.3004,2.3075,2.3077,2.3158,2.3173,2.3228,2.3248,2.3274,2.3295,2.3361,2.3398,2.3406,2.3426,2.347,2.351,2.3512,2.3528,2.3553,2.3551,2.344,2.3424,2.3409,2.3392,2.3557,2.3558,2.3666,2.3667,2.3668]}]]